map of TGI home
TGI - Airport
Location
City:  Tingo María, Huánuco, Perú
Name:Tingo María Airport
ICAO:SPGM
IATA:TGI

Details
Type:Airport (Aerodrome, Airfield)
Use:Public/Civil
Latitude:9°17'22"S (-9.289374)
Longitude:76°00'18"W (-76.005041)
Elevation:2146 ft (654 m)
Variation:3.52°W (WMM2015 magnetic declination)
-0.17° annual change
Runways:1
Longest:6890 × 98 ft (2100 × 30 m)

Time
Time Zone:UTC-5
Local Time:

Weather
METAR:SPGM 182200Z 18006KT 8000 VCSH SCT040 OVC100 27/21 Q1011 RMK BIRD HAZARD RWY 19 TX32.4 PP000
TAF:SPGM 181710Z 1818/1918 06005KT 9999 SCT030 BKN120 TX32/1819Z TN21/1910Z
TEMPO 1911/1914 00000KT 8000 SCT015 BKN100

Related Locations
Nearby:
Farthest:PQC: 12369 mi / 19906 km
Phú Quóc [Intl], VN

Find:

   beyond  
but within

Other Information
Maps:
NOTAMs:
Links:
Sources:

  
  • flag of Perú
  • flag of Huánuco
  

Sectional Chart

Flight Planning
at skyvector.com

Satellite Image

Google Maps Satellite view

 

Copyright © 2004-2018 Karl L. Swartz. All rights reserved.
The Great Circle Mapper name and logo are trademarks of the Great Circle Mapper.
All other trademarks mentioned herein belong to their respective owners.
Please see credits for attibutions and further copyright information.

  Follow gcmap on Facebook Follow gcmap on Twitter Follow gcmap on Google+ GCmap on LinkedIn

hCard Microformat

Geo Microformat